Flag for Greece Weather past 2 weeks in Santorini, Greece

Now
63 °F

Mild.


Feels Like: 63 °F
Forecast: 65 / 68 °F
Wind: 8 mph from Northwest

Location: Santorini Island

Current Time: May 29, 2015 at 12:18:25 AM

Latest Report: May 28, 2015 at 11:50 PM


Visibility: N/A

Pressure: 29.80 "Hg

Humidity: 88%

Dew point: 59 °F

Location of SantoriniLocation

Historic Weather in Santorini — Graph

°F

Santorini temperature yesterday

Maximum temperature yesterday: 73 °F (at 9:50 AM)
Minimum temperature yesterday: 61 °F (at 8:20 PM)
Average temperature yesterday: 68 °F

Past Weeks' High & Low Weather Summary

 TemperatureHumidityPressure
High81 °F (May 22, 5:20 PM)100% (May 18, 6:20 AM)30.18 "Hg (May 18, 6:20 AM)
Low61 °F (May 14, 1:50 AM)32% (May 23, 8:50 AM)29.65 "Hg (May 27, 3:50 AM)
Average69 °F73%29.89 "Hg
* Reported May 13 10:20 PM — May 28 10:50 PM, Santorini, Weather by CustomWeather, © 2015

Note: Actual official high and low records may vary slightly from our data, if they occured in-between our weather recording intervals... More about our weather records

Advertising

Santorini weather history for previous 24 hours

 ConditionsComfort  
Time TempWeatherWind HumidityBarometerVisibility
10:50 PM
Thu, May 28
64 °FPartly cloudy.8 mph88%29.80 "HgN/A
10:20 PM63 °FPartly cloudy.6 mph94%29.80 "HgN/A
9:50 PM64 °FLight rain. Partly cloudy.7 mph88%29.80 "HgN/A
9:20 PM63 °FMore clouds than sun.6 mph88%29.80 "Hg5 mi
8:50 PM61 °FThunderstorms. More clouds than sun.14 mph100%29.80 "Hg5 mi
8:20 PM61 °FStrong thunderstorms. Broken clouds.15 mph94%29.80 "Hg3 mi
7:50 PM66 °FThunderstorms. Broken clouds.2 mph94%29.77 "Hg6 mi
7:20 PM68 °FRain. Partly sunny.7 mph78%29.77 "HgN/A
6:50 PM72 °FPartly sunny.9 mph65%29.77 "HgN/A
6:20 PM72 °FScattered clouds.6 mph61%29.77 "HgN/A
5:50 PM72 °FScattered clouds.8 mph65%29.77 "HgN/A
5:20 PM70 °FScattered clouds.9 mph69%29.77 "HgN/A
4:50 PM70 °FScattered clouds.10 mph69%29.77 "HgN/A
4:20 PM72 °FScattered clouds.7 mph69%29.77 "HgN/A
3:50 PM70 °FPartly sunny.7 mph73%29.77 "HgN/A
3:20 PM70 °FPartly sunny.12 mph78%29.77 "HgN/A
2:50 PM70 °FBroken clouds.7 mph78%29.80 "HgN/A
2:20 PM72 °FBroken clouds.9 mph69%29.80 "HgN/A
1:50 PM73 °FBroken clouds.12 mph65%29.80 "HgN/A
1:20 PM73 °FBroken clouds.10 mph61%29.80 "HgN/A
12:50 PM73 °FBroken clouds.12 mph65%29.80 "HgN/A
12:20 PM73 °FBroken clouds.12 mph65%29.80 "HgN/A
11:50 AM73 °FBroken clouds.12 mph69%29.80 "HgN/A
11:20 AM72 °FBroken clouds.10 mph73%29.80 "HgN/A
10:50 AM70 °FBroken clouds.6 mph73%29.80 "HgN/A
10:20 AM70 °FBroken clouds.7 mph78%29.80 "HgN/A
9:50 AM73 °FScattered clouds.8 mph65%29.77 "HgN/A
9:20 AM72 °FPassing clouds.7 mph69%29.77 "HgN/A
8:50 AM70 °FPassing clouds.10 mph78%29.77 "HgN/A
8:20 AM70 °FPassing clouds.9 mph73%29.77 "HgN/A
7:50 AM68 °FSunny.7 mph83%29.74 "Hg10 mi
7:20 AM66 °FPassing clouds.6 mph88%29.74 "HgN/A
6:50 AM64 °FPassing clouds.6 mph94%29.74 "HgN/A
6:20 AM64 °FPassing clouds.5 mph88%29.74 "HgN/A
5:50 AM64 °FPassing clouds.5 mph88%29.74 "HgN/A
5:20 AM64 °FPartly cloudy.3 mph88%29.71 "HgN/A
4:50 AM64 °FPartly cloudy.7 mph88%29.71 "HgN/A
4:20 AM64 °FPartly cloudy.7 mph88%29.74 "HgN/A
3:50 AM66 °FMild.7 mph83%29.74 "HgN/A
3:20 AM66 °FMild.9 mph83%29.74 "HgN/A
2:50 AM66 °FMild.9 mph83%29.74 "HgN/A
2:20 AM68 °FMild.9 mph73%29.74 "HgN/A
1:50 AM68 °FMild.1 mph78%29.74 "HgN/A
1:20 AM68 °FMild.7 mph78%29.74 "HgN/A
12:50 AM68 °FMild.18 mph78%29.74 "HgN/A
12:20 AM68 °FMild.18 mph78%29.74 "HgN/A
Weather by CustomWeather, © 2015

See weather overviewHow to use our weather pages